#timestamp,LO_Frequency,Hit,StdDev 
1561939215.3,286046996.5,Y
1561939235.1,286047000.7,P
1561939255.8,286046998.5,N
1561939275.7,286046998.3,N
1561939295.5,286046998.7,N
1561939315.4,286046998.6,N
1561939335.2,286046999.3,N
1561939355.0,286046999.5,N
1561939355.9,286046999.5,N
1561939375.8,286046999.5,N
1561939395.6,286046998.8,N
1561939415.4,286046998.4,N
1561939435.3,286046998.8,N
1561939455.1,286046998.1,Y
1561939475.9,286047001.0,P
1561939495.7,286047000.6,N
1561939515.5,286046999.9,N
1561939535.4,286047000.4,N
1561939555.2,286047001.0,N
1561939575.0,286047000.0,N
1561939576.0,286047000.0,N
1561939595.8,286046999.7,N
1561939615.6,286047001.3,N
1561939635.5,286047001.5,N
1561939655.3,286047001.3,N
1561939675.1,286047003.5,Y
1561939695.9,286047005.6,P
1561939715.7,286047005.8,N
1561939735.6,286047004.0,N
1561939755.4,286047003.2,N
1561939775.2,286047003.0,N
1561939795.1,286047004.1,N
1561939796.0,286047004.1,N
1561939815.8,286047003.6,N
1561939835.6,286047003.6,N
1561939855.5,286047005.5,Y
1561939875.3,286047002.6,P
1561939895.2,286046999.7,N
1561939915.9,286047001.0,N
1561939935.7,286047002.4,N
1561939955.6,286047000.9,N
1561939975.4,286046998.3,N
1561939995.2,286046999.5,N
1561940015.1,286046998.9,N
1561940016.0,286046998.9,N
1561940035.8,286046998.9,N
1561940055.7,286046998.8,N
1561940075.5,286046998.5,N
1561940095.3,286047000.5,N
1561940115.2,286047000.7,N
1561940135.9,286047001.2,N
1561940155.7,286046999.8,N
1561940175.6,286047001.4,N
1561940195.4,286047002.5,N
1561940215.2,286047002.0,N
1561940235.1,286047002.7,N
1561940236.0,286047002.7,N
1561940255.8,286047000.0,N
1561940275.7,286046999.9,N
1561940295.5,286047002.1,N
1561940315.3,286047001.4,N
1561940335.2,286047001.6,N
1561940355.0,286047001.9,N
1561940355.9,286047001.9,N
1561940375.7,286047004.4,N
1561940395.6,286047001.3,N
1561940415.4,286047004.0,N
1561940435.3,286047001.7,N
1561940455.1,286047001.8,N
1561940456.0,286047001.8,N
1561940475.8,286047002.5,N
1561940495.7,286046999.7,N
1561940515.5,286047002.7,N
1561940535.3,286046999.7,N
1561940555.2,286047002.6,N
1561940575.0,286047001.7,N
1561940575.9,286047001.7,N
1561940595.8,286047002.5,N
1561940615.6,286047002.5,N
1561940635.4,286047000.2,N
1561940655.3,286047000.6,N
1561940675.1,286047001.2,N
1561940695.8,286046998.1,N
1561940715.7,286046998.2,N
1561940735.5,286046998.5,N
1561940755.4,286046999.3,N
1561940775.2,286047001.0,N
1561940795.0,286047000.9,N
1561940795.9,286047000.9,N
1561940815.8,286047000.9,N
1561940835.6,286047000.4,N
1561940855.4,286046998.1,N
1561940875.3,286046998.2,N
1561940895.1,286047001.1,N
1561940915.8,286047000.7,N
1561940935.7,286047000.3,N
1561940955.5,286046999.8,N
1561940975.4,286047000.4,N
1561940995.2,286047000.0,N
1561941015.0,286046999.9,N
1561941015.9,286046999.9,N
1561941035.8,286047000.2,N
1561941055.6,286047001.2,N
1561941075.4,286046998.2,N
1561941095.3,286047000.6,N
1561941115.1,286046998.1,N
1561941135.9,286047000.9,N
1561941155.7,286047000.3,N
1561941175.5,286046999.9,N
1561941195.4,286047000.3,N
1561941215.2,286047000.3,N
1561941235.0,286047001.5,N
1561941235.9,286047001.5,N
1561941255.8,286047000.2,N
1561941275.6,286047002.3,N
1561941295.5,286047004.4,Y
1561941315.3,286047002.7,P
1561941335.1,286047000.4,N
1561941355.9,286047000.4,N
1561941375.7,286046998.2,N
1561941395.5,286047001.3,N
1561941415.4,286047001.7,N
1561941435.2,286047001.7,N
1561941455.0,286047002.4,N
1561941455.9,286047002.4,N
1561941475.8,286047002.6,N
1561941495.6,286047002.0,N
1561941515.5,286047002.5,N
1561941535.3,286047002.3,N
1561941555.1,286046999.8,N
1561941575.9,286047002.7,N
1561941595.7,286047002.1,N
1561941615.5,286046999.7,N
1561941635.4,286047002.2,N
1561941655.2,286047001.9,N
1561941675.1,286047000.1,N
1561941676.0,286047000.1,N
1561941695.8,286047002.7,N
1561941715.6,286047000.2,N
1561941735.5,286047002.4,N
1561941755.3,286046999.8,N
1561941775.1,286047002.1,N
1561941795.9,286046999.9,N
1561941815.7,286047002.3,N
1561941835.6,286047002.3,N
1561941855.4,286047002.6,N
1561941875.2,286047002.3,N
1561941895.1,286047001.5,N
1561941896.0,286047001.5,N
1561941915.8,286047003.6,Y
1561941935.7,286047002.5,P
1561941955.5,286047002.8,P
1561941975.3,286046998.5,N
1561941995.2,286046998.4,N
1561942015.0,286046998.9,N
1561942015.9,286046998.9,N
1561942035.7,286046999.5,N
1561942055.6,286046996.6,N
1561942075.4,286046997.2,N
1561942095.3,286046997.6,N
1561942115.1,286046997.9,N
1561942116.0,286046997.9,N
1561942135.8,286046997.9,N
1561942155.7,286046996.6,N
1561942175.5,286046999.1,N
1561942195.3,286046998.4,N
1561942215.2,286046998.7,N
1561942235.0,286046996.9,N
1561942235.9,286046996.9,N
1561942255.7,286046999.5,N
1561942275.6,286046996.7,N
1561942295.4,286046999.6,N
1561942315.3,286046999.6,N
1561942335.1,286046996.7,N
1561942336.0,286046996.7,N
1561942355.8,286046996.6,N
1561942375.7,286046996.9,N
1561942395.5,286046996.6,N
1561942415.3,286046999.6,N
1561942435.2,286046996.5,N
1561942455.0,286046997.1,N
1561942455.9,286046997.1,N
1561942475.8,286046997.3,N
1561942495.6,286046997.4,N
1561942515.4,286046997.2,N
1561942535.3,286046999.6,N
1561942555.1,286046999.4,N
1561942575.8,286046999.0,N
1561942595.7,286046998.9,N
1561942615.5,286046999.2,N
1561942635.3,286047001.1,N
1561942655.2,286046998.4,N
1561942675.0,286046999.0,N
1561942675.9,286046999.0,N
1561942695.8,286046998.7,N
1561942715.6,286046998.4,N
1561942735.4,286046998.9,N
1561942755.3,286046998.7,N
1561942775.1,286046999.6,N
1561942795.8,286046998.4,N
